FDX19 KMEM-PANC

Flight info

Callsign FDX19
Flight time N/A
Altitude 32000
Route JTEEE5 ODATE KK51I HIBAV KP75E KP87C KP12Y ISN/N0484F340 ITREK GUDOG YEGGA YQU 57N125W MITOM/N0484F360 DEEJA NCA10 YAK J501 JOH PTERS3
Aircraft MD11/H-SDE1E2E3FGHIJ2J3J4J5M1RWXY/LB1D1

Departure

Time 2026-05-06 22:15
Airport Memphis International Airport (KMEM)

Arrival

Time N/A
Airport Ted Stevens Anchorage International Airport (PANC)
Time Latitude Longitude Altitude Speed Heading
2026-05-06 21:31 35.06266 -89.97273 338 ft 0 kts 359°
2026-05-06 21:55 35.06261 -89.97273 338 ft 2 kts 359°
2026-05-06 21:55 35.06244 -89.97273 364 ft 2 kts 358°
2026-05-06 21:56 35.06227 -89.97271 328 ft 3 kts 335°
2026-05-06 21:56 35.06212 -89.97261 333 ft 3 kts 306°
2026-05-06 21:56 35.06203 -89.97241 333 ft 3 kts 285°
2026-05-06 21:56 35.06199 -89.97218 333 ft 3 kts 274°
2026-05-06 21:57 35.06198 -89.97198 333 ft 1 kts 269°
2026-05-06 21:57 35.06198 -89.97192 333 ft 0 kts 269°
2026-05-06 22:00 35.06198 -89.97194 333 ft 1 kts 269°
2026-05-06 22:00 35.06198 -89.97211 333 ft 4 kts 269°
2026-05-06 22:01 35.06198 -89.97270 333 ft 10 kts 270°
2026-05-06 22:01 35.06198 -89.97378 334 ft 15 kts 270°
2026-05-06 22:01 35.06192 -89.97491 333 ft 11 kts 245°
2026-05-06 22:01 35.06151 -89.97539 333 ft 6 kts 204°
2026-05-06 22:02 35.06118 -89.97542 334 ft 5 kts 177°
2026-05-06 22:02 35.06072 -89.97542 335 ft 9 kts 179°
2026-05-06 22:02 35.06014 -89.97542 335 ft 7 kts 181°
2026-05-06 22:02 35.05975 -89.97557 334 ft 5 kts 214°
2026-05-06 22:03 35.05969 -89.97592 334 ft 4 kts 279°
2026-05-06 22:03 35.05976 -89.97641 335 ft 8 kts 280°
2026-05-06 22:03 35.05995 -89.97728 336 ft 13 kts 284°
2026-05-06 22:03 35.06008 -89.97852 338 ft 16 kts 272°
2026-05-06 22:04 35.06012 -89.97997 334 ft 18 kts 272°
2026-05-06 22:04 35.06017 -89.98165 336 ft 21 kts 272°
2026-05-06 22:04 35.06021 -89.98329 334 ft 18 kts 272°
2026-05-06 22:04 35.06019 -89.98467 335 ft 13 kts 252°
2026-05-06 22:05 35.05963 -89.98509 332 ft 5 kts 182°
2026-05-06 22:05 35.05924 -89.98509 335 ft 7 kts 178°
2026-05-06 22:05 35.05861 -89.98503 334 ft 11 kts 176°
2026-05-06 22:05 35.05776 -89.98506 335 ft 13 kts 182°
2026-05-06 22:06 35.05680 -89.98509 335 ft 15 kts 180°
2026-05-06 22:06 35.05570 -89.98510 335 ft 17 kts 180°
2026-05-06 22:06 35.05445 -89.98511 335 ft 19 kts 180°
2026-05-06 22:06 35.05305 -89.98511 336 ft 21 kts 180°
2026-05-06 22:07 35.05151 -89.98509 335 ft 23 kts 180°
2026-05-06 22:07 35.04986 -89.98513 336 ft 25 kts 181°
2026-05-06 22:07 35.04819 -89.98512 335 ft 23 kts 179°
2026-05-06 22:07 35.04672 -89.98509 335 ft 20 kts 179°
2026-05-06 22:08 35.04537 -89.98507 334 ft 19 kts 179°
2026-05-06 22:08 35.04408 -89.98503 335 ft 18 kts 179°
2026-05-06 22:08 35.04294 -89.98500 333 ft 15 kts 178°
2026-05-06 22:08 35.04197 -89.98498 335 ft 13 kts 179°
2026-05-06 22:09 35.04118 -89.98497 335 ft 10 kts 179°
2026-05-06 22:09 35.04049 -89.98495 333 ft 11 kts 179°
2026-05-06 22:09 35.03968 -89.98494 335 ft 13 kts 179°
2026-05-06 22:09 35.03868 -89.98493 334 ft 15 kts 180°
2026-05-06 22:10 35.03754 -89.98489 333 ft 18 kts 178°
2026-05-06 22:10 35.03624 -89.98484 335 ft 20 kts 178°
2026-05-06 22:10 35.03480 -89.98480 335 ft 22 kts 179°
2026-05-06 22:10 35.03322 -89.98475 335 ft 23 kts 178°
2026-05-06 22:11 35.03155 -89.98473 334 ft 25 kts 179°
2026-05-06 22:11 35.02980 -89.98469 335 ft 26 kts 179°
2026-05-06 22:11 35.02798 -89.98464 335 ft 26 kts 179°
2026-05-06 22:11 35.02628 -89.98460 335 ft 23 kts 179°
2026-05-06 22:12 35.02479 -89.98459 335 ft 18 kts 180°
2026-05-06 22:12 35.02410 -89.98491 338 ft 7 kts 237°
2026-05-06 22:12 35.02406 -89.98540 338 ft 5 kts 269°
2026-05-06 22:12 35.02405 -89.98574 338 ft 4 kts 269°
2026-05-06 22:13 35.02405 -89.98613 338 ft 5 kts 269°
2026-05-06 22:13 35.02404 -89.98659 337 ft 5 kts 269°
2026-05-06 22:13 35.02409 -89.98680 337 ft 0 kts 299°
2026-05-06 22:13 35.02409 -89.98681 337 ft 0 kts 303°
2026-05-06 22:14 35.02414 -89.98684 332 ft 3 kts 321°
2026-05-06 22:14 35.02429 -89.98690 336 ft 2 kts 348°
2026-05-06 22:14 35.02454 -89.98690 335 ft 6 kts
2026-05-06 22:14 35.02519 -89.98691 334 ft 21 kts 359°
2026-05-06 22:15 35.02938 -89.98703 334 ft 99 kts 360°
2026-05-06 22:15 35.03844 -89.98713 335 ft 162 kts 359°
2026-05-06 22:15 35.05058 -89.98756 666 ft 178 kts
2026-05-06 22:15 35.06298 -89.98772 1604 ft 177 kts
2026-05-06 22:16 35.07534 -89.98856 2516 ft 181 kts 356°
2026-05-06 22:16 35.08805 -89.99043 3209 ft 189 kts 352°
2026-05-06 22:16 35.10161 -89.99197 3638 ft 207 kts 352°
2026-05-06 22:16 35.11631 -89.99342 4078 ft 213 kts 352°
2026-05-06 22:17 35.13114 -89.99482 4562 ft 216 kts 350°
2026-05-06 22:17 35.14603 -89.99667 5103 ft 218 kts 346°
2026-05-06 22:17 35.16213 -89.99974 5248 ft 247 kts 345°
2026-05-06 22:17 35.17989 -90.00331 5383 ft 269 kts 345°
2026-05-06 22:18 35.19916 -90.00718 5555 ft 291 kts 346°
2026-05-06 22:18 35.21945 -90.01073 6256 ft 300 kts 349°
2026-05-06 22:18 35.24044 -90.01266 7102 ft 305 kts 351°
2026-05-06 22:18 35.26181 -90.01401 7968 ft 311 kts 351°
2026-05-06 22:19 35.28338 -90.01525 8777 ft 317 kts 351°
2026-05-06 22:19 35.30552 -90.01651 9605 ft 321 kts 351°
2026-05-06 22:19 35.32815 -90.01783 10163 ft 333 kts 351°
2026-05-06 22:19 35.35221 -90.01934 10262 ft 356 kts 351°
2026-05-06 22:20 35.37760 -90.02093 10529 ft 371 kts 351°
2026-05-06 22:20 35.40348 -90.02245 11115 ft 376 kts 351°
2026-05-06 22:20 35.42984 -90.02399 11687 ft 381 kts 350°
2026-05-06 22:20 35.45639 -90.02555 12438 ft 382 kts 349°
2026-05-06 22:21 35.48322 -90.02717 13193 ft 391 kts 349°
2026-05-06 22:21 35.51042 -90.03015 13925 ft 393 kts 345°
2026-05-06 22:21 35.53754 -90.03516 14413 ft 395 kts 341°
2026-05-06 22:21 35.56449 -90.04203 14969 ft 395 kts 339°
2026-05-06 22:22 35.59132 -90.04946 15576 ft 396 kts 338°
2026-05-06 22:22 35.61832 -90.05700 16120 ft 397 kts 338°
2026-05-06 22:22 35.64611 -90.06152 16620 ft 411 kts 350°
2026-05-06 22:22 35.67472 -90.06013 17096 ft 420 kts 355°
2026-05-06 22:23 35.70397 -90.05683 17592 ft 423 kts 356°
2026-05-06 22:23 35.73334 -90.05359 18105 ft 424 kts 355°
2026-05-06 22:23 35.76277 -90.05104 18553 ft 423 kts 353°
2026-05-06 22:23 35.79177 -90.05265 18906 ft 408 kts 338°
2026-05-06 22:24 35.81811 -90.06319 19290 ft 393 kts 325°
2026-05-06 22:24 35.84213 -90.07872 19647 ft 389 kts 320°
2026-05-06 22:24 35.86537 -90.09591 20025 ft 389 kts 319°
2026-05-06 22:24 35.88857 -90.11339 20397 ft 392 kts 319°
2026-05-06 22:25 35.91200 -90.13076 20788 ft 394 kts 320°
2026-05-06 22:25 35.93548 -90.14777 21160 ft 397 kts 320°
2026-05-06 22:25 35.95975 -90.16507 21554 ft 400 kts 320°
2026-05-06 22:25 35.98366 -90.18192 21933 ft 402 kts 321°
2026-05-06 22:26 36.00810 -90.19905 22305 ft 405 kts 321°
2026-05-06 22:26 36.03275 -90.21630 22696 ft 408 kts 321°
2026-05-06 22:26 36.05758 -90.23365 23090 ft 410 kts 321°
2026-05-06 22:26 36.08250 -90.25108 23486 ft 413 kts 321°
2026-05-06 22:27 36.10756 -90.26863 23845 ft 415 kts 321°
2026-05-06 22:27 36.13282 -90.28632 24202 ft 417 kts 321°
2026-05-06 22:27 36.15818 -90.30410 24564 ft 419 kts 321°
2026-05-06 22:27 36.18360 -90.32193 24939 ft 421 kts 320°
2026-05-06 22:28 36.20879 -90.33962 25308 ft 423 kts 320°
2026-05-06 22:28 36.23448 -90.35767 25687 ft 425 kts 320°
2026-05-06 22:28 36.26016 -90.37573 26063 ft 426 kts 320°
2026-05-06 22:28 36.28605 -90.39396 26451 ft 428 kts 320°
2026-05-06 22:29 36.31198 -90.41223 26825 ft 429 kts 320°
2026-05-06 22:29 36.33800 -90.43057 27204 ft 431 kts 320°
2026-05-06 22:29 36.36415 -90.44902 27598 ft 432 kts 319°
2026-05-06 22:29 36.39033 -90.46751 27949 ft 434 kts 319°
2026-05-06 22:30 36.41666 -90.48612 28312 ft 435 kts 319°
2026-05-06 22:30 36.44302 -90.50476 28672 ft 437 kts 319°
2026-05-06 22:30 36.46945 -90.52346 29039 ft 438 kts 319°
2026-05-06 22:30 36.49593 -90.54223 29386 ft 439 kts 319°
2026-05-06 22:31 36.52252 -90.56108 29730 ft 441 kts 319°
2026-05-06 22:31 36.54915 -90.58005 30056 ft 442 kts 319°
2026-05-06 22:31 36.57554 -90.59890 30322 ft 443 kts 319°
2026-05-06 22:31 36.60232 -90.61801 30578 ft 444 kts 318°
2026-05-06 22:32 36.62917 -90.63715 30882 ft 443 kts 318°